Flag Weather past 2 weeks in Saint John, New Brunswick, Canada

Now
54 °F

Partly sunny.


Feels Like: 50 °F
Forecast: 43 / 56 °F
Wind: 10 mph from Northwest

Location: Saint John

Current Time: Oct 30, 2014 at 4:18:33 PM

Latest Report: Oct 30, 2014 at 3:00 PM


Visibility: 15 mi

Pressure: 29.81 "Hg

Humidity: 54%

Dew point: 37 °F

Location of Saint JohnLocation

Historic Weather in Saint John — Graph

°F

Saint John temperature yesterday

Maximum temperature yesterday: 57 °F (at 1:00 PM)
Minimum temperature yesterday: 46 °F (at 12:00 AM)
Average temperature yesterday: 53 °F

Past Weeks' High & Low Weather Summary

 TemperatureHumidityPressure
High68 °F (Oct 15, 3:00 PM)100% (Oct 15, 7:00 PM)30.29 "Hg (Oct 15, 7:00 PM)
Low28 °F (Oct 21, 5:00 AM)41% (Oct 21, 1:00 PM)29.31 "Hg (Oct 26, 2:00 PM)
Average50 °F88%29.81 "Hg
* Reported Oct 15 3:00 PM — Oct 30 3:00 PM, Saint John, Weather by CustomWeather, © 2014

Note: Actual official high and low records may vary slightly from our data, if they occured in-between our weather recording intervals... More about our weather records

Advertising

Saint John weather history for previous 24 hours

 ConditionsComfort  
Time TempWeatherWind HumidityBarometerVisibility
3:00 PM
Oct 30
54 °FPartly sunny.10 mph54%29.81 "Hg15 mi
2:00 PM54 °FPartly sunny.6 mphN/A29.81 "Hg15 mi
1:00 PM52 °FBroken clouds.9 mph62%29.82 "Hg15 mi
12:00 PM50 °FPartly sunny.10 mph71%29.82 "Hg15 mi
11:00 AM46 °FPartly sunny.7 mph82%29.83 "Hg15 mi
10:00 AM46 °FScattered clouds.6 mph87%29.83 "Hg15 mi
9:00 AM45 °FScattered clouds.6 mph100%29.83 "Hg15 mi
8:00 AM45 °FPassing clouds.7 mph93%29.80 "Hg15 mi
7:00 AM45 °FPassing clouds.5 mph100%29.78 "Hg15 mi
6:00 AM48 °FMostly cloudy.5 mph100%29.77 "Hg15 mi
5:00 AM48 °FOvercast.3 mph94%29.75 "Hg15 mi
4:00 AM50 °FLight rain. Low clouds.2 mph88%29.75 "Hg15 mi
3:00 AM50 °FLight rain. Mostly cloudy.12 mph94%29.74 "Hg15 mi
2:00 AM54 °FLight rain. Mostly cloudy.6 mph100%29.72 "Hg10 mi
1:00 AM54 °FDrizzle. Fog.6 mph100%29.72 "Hg1 mi
12:00 AM54 °FDrizzle. Fog.6 mph100%29.70 "Hg1 mi
11:00 PM
Oct 29
55 °FDrizzle. Fog.9 mph100%29.73 "Hg1 mi
10:00 PM55 °FDrizzle. Fog.13 mph100%29.74 "Hg1 mi
9:00 PM55 °FDrizzle. Fog.8 mph100%29.75 "Hg1 mi
8:00 PM55 °FDrizzle. Fog.10 mph100%29.77 "Hg1 mi
7:00 PM55 °FFog.8 mph100%29.77 "Hg1 mi
6:00 PM55 °FFog.13 mph100%29.77 "Hg1 mi
5:00 PM55 °FFog.14 mph100%29.77 "Hg0 mi
4:00 PM57 °FFog.17 mph100%29.79 "Hg0 mi
Weather by CustomWeather, © 2014

See weather overviewHow to use our weather pages